STARLINK-1132, 45044

Orbit data source: Space-Track

STARLINK-1132, 45044 is a payload satellite owned by SpaceX/Seattle (US) in LEO that was launched on Wed, 29 Jan 2020 UTC via an FALCON 9 launch vehicle from the Air Force Eastern Test Range (AFETR). Payloads include a variety of satellites, spacecraft, and rockets equipped with specific instruments for various scientific and technological missions. These include communications satellites like Starlink; space stations such as the ISS; scientific satellites like the Hubble; Earth observation satellites from companies like Planet Labs, Umbra, and HawkEye 360; GPS; miniature CubeSats for education and research; and military/defense satellites.

Loading next visibility...
STARLINK-1132 details
Identifier
45044, 2020-006A
Orbit
LEO
Last TLE update22 hours ago
Origin
Flag of USSpaceX/Seattle (US)
ManufacturerSpaceX/Seattle
MissionOperational Commercial Communications
Bus & MotorSTARLINK, Unknown motor
Mass260 kg wet, ~248 kg dry
Launch date (UTC)
2020-01-29 (5 years ago)
Launch vehicle
FALCON 9
Launch site
Air Force Eastern Test Range (AFETR)
Object type
Payload
Rocket body
Debris
Shape & HBRBox + 1 Pan, 8.86 m
Radar Cross Section13.562 m², Large (>1 m²)

Expand to show TLE details & history

TLE from 22 hours ago
0 STARLINK-1132
1 45044U 20006A   24360.50317778 -.00002039  00000-0 -11810-3 0  9998
2 45044  53.0557  78.2031 0001584 104.5232 255.5933 15.06377630270548
Epoch: 2024-12-25T12:04Z
Definitive object data (Epoch: 2024-12-25T12:04:34.56Z)
Latitude0.00001°
Longitude162.56312°
Altitude548.432 km
Speed7.589 km/s
True Right ascension05h 12m 48s
True Declination0° 00' 00"
Sunlit
Object was in full shadow at TLE epoch
Visualization TLE readout
Latitude-50.61025°
Longitude44.10485°
Altitude565.707 km
Speed7.578 km/s
Apparent Right ascension21h 17m 01s
Apparent Declination-45° 18' 34"
Sunlit
Object is in daylight
Visualization observer readout
Local Sidereal Time09:15:16
Azimuth183.283° SSW
Elevation-84.597°
Doppler factor1
Orbital elements
Apogee altitude548.648 km
Perigee altitude546.454 km
Semi-major axis6,925.688 km
Eccentricity0.0001584
Inclination53.0557°
RAAN78.2031°
Arg. of periapsis104.5232°
True anomaly255.57572°
Mean anomaly255.5933°
Eccentric anomaly255.58451°
Mean motion3.76573 °/min
BSTAR-0.0001181
Orbital period95.6 mins
Loading maneuver chart data...
Loading historical data...
Loading historical data...
Loading historical data...
Loading historical data...
Loading historical data...
Loading historical data...
Loading historical data...

STARLINK-1132 Visibility forecast

Observer location: undefined°, undefined

Span
Click to sort rows by Start time (UTC) header in descending order
Start Az.
Max El. time (UTC)
Max El. Az.
Max El.
End time (UTC)
End Az.
4 mins2024-12-26 10:41:10.536Z316.395° NNW2024-12-26 10:43:10.536Z346.74° N14.224°2024-12-26 10:45:10.536Z18.161° NNE
6 mins2024-12-26 14:02:10.536Z332.122° NNW2024-12-26 14:05:10.536Z49.108° ENE30.466°2024-12-26 14:08:10.536Z98.567° ESE
5 mins2024-12-26 15:42:10.536Z276.494° WNW2024-12-26 15:44:10.536Z227.554° WSW28.587°2024-12-26 15:47:10.536Z168.555° S
6 mins2024-12-27 07:14:10.536Z201.237° SSW2024-12-27 07:17:10.536Z127.322° SE35.224°2024-12-27 07:20:10.536Z65.129° ENE
6 mins2024-12-27 08:54:10.536Z278.634° WNW2024-12-27 08:56:10.536Z317.32° NNW26.337°2024-12-27 09:00:10.536Z33.856° NE
|